Regional Weather Roundup
Issued by NWS Newport/Morehead, NC

Home | Current Version | Previous Version | Text Only | Print | Product List | Glossary On
Versions: 1 2 3 4 5 6 7 8 9 10 11 12 13 14 15 16 17 18 19 20 21 22 23 24 25 26 27 28 29 30 31 32 33 34 35 36 37 38 39 40 41 42 43 44 45 46 47 48 49 50
000
ASUS42 KMHX 271922
RWRMHX
WEATHER ROUNDUP FOR EASTERN NORTH CAROLINA
NATIONAL WEATHER SERVICE NEWPORT/MOREHEAD CITY NC
300 PM EDT WED AUG 27 2014

NOTE: "FAIR" INDICATES FEW OR NO CLOUDS BELOW 12,000 FEET
WITH NO SIGNIFICANT WEATHER AND/OR OBSTRUCTIONS TO VISIBILITY

NCZ015>017-031-032-045>047-102-103-272000-
NORTH COAST

CITY           SKY/WX    TMP DP  RH WIND       PRES   REMARKS
EDENTON        MOSUNNY   85  69  59 NE5       29.95F
ELIZABETH CITY SUNNY     82  69  64 NE12      29.97F
KITTY HAWK     CLEAR     79  71  78 N10G20    29.94F
MANTEO         PTSUNNY   80  72  76 N15       29.95F

$$

NCZ045>047-081-094-103-104-272000-
CENTRAL COAST

CITY           SKY/WX    TMP DP  RH WIND       PRES   REMARKS
FRISCO         MOSUNNY   80  74  81 N16G26    29.92F
SWANQUARTER      N/A     84 N/A N/A N10G18    29.88F

$$

NCZ095-097-098-100-101-272000-
SOUTHERN COAST

CITY           SKY/WX    TMP DP  RH WIND       PRES   REMARKS
BEAUFORT       MOSUNNY   86  71  60 N17G26    29.93F
CEDAR ISLAND     N/A     82 N/A N/A N18       29.97S
JACKSONVILLE   MOSUNNY   86  67  52 N12       29.95F
NEWPORT        NOT AVBL
PINEY ISLAND   CLEAR     86  74  67 N16       29.94F
WILMINGTON     MOSUNNY   86  68  54 N10       29.95F


$$

NCZ011>013-027>030-043-044-078>080-089-090>093-098-272000-
COASTAL PLAIN

CITY           SKY/WX    TMP DP  RH WIND       PRES   REMARKS
AHOSKIE        SUNNY     81  64  55 NW6       29.98F
CLINTON        SUNNY     85  66  52 N5        29.98F
ELIZABETHTOWN  SUNNY     86  62  44 NW3       29.98F
GOLDSBORO      SUNNY     83  69  62 N10       29.97F
GREENVILLE     PTSUNNY   82  68  61 N6        30.00F
HAVELOCK       PTSUNNY   87  70  56 N13       29.95F
KENANSVILLE    SUNNY     84  65  52 N6        29.99F
KINSTON        MOSUNNY   84  66  54 N10       29.98F
NEW BERN       MOSUNNY   87  70  56 N13       29.96F
RICHLANDS      MOSUNNY   84  66  54 N10G17    29.96F
ROANOKE RAPIDS NOT AVBL
ROCKY MOUNT    SUNNY     84  59  42 N9        30.00F
WASHINGTON     MOSUNNY   83  68  61 N10G17    29.96F
WHITEVILLE     SUNNY     84  63  48 N7        29.97F

$$

AMZ130-135-150-152-154-156-158-170-250-252-270-ANZ085-086-088-633-658-670-272000-
MARINE OBSERVATIONS

STATION/POSITION TIME  TEMP    WIND        PRES    WAVE   SWELL
                       AIR SEA DIR/SP/G            HT/PER HT/PER
                 (UTC) (F)     (DEG/KT/KT) (MB)    (FT/S) (FT/S)
CHESAPEAKE LIGHT 1900   73      20/ 11/ 13 1015.8
BUOY 44014       1900   77 78   30/ 14/ 17 1013.7    8/14   7/14
DUCK             1900   74 77   10/ 16/ 19 1013.9
2E DUCK          1900                        N/A     5/13   3/13
OREGON INLET     1900   78 78  350/ 13/ 19 1014.0
BUOY 44095       1900      76                N/A     8/10   5/14
20E OREGON INLET NOT AVBL
HATTERAS CG      1900   78 79   10/ 21/ 26 1013.5
DIAMOND BUOY     1900   78     360/ 21/ 27 1011.9   11/12   8/12
CAPE LOOKOUT     1900   83      20/ 16/ 21 1013.2
BEAUFORT LAB     1900   83 79   20/ 12/ 18 1013.0
30 SE NEW RIVER  1900   80 80  360/ 14/ 16 1013.9    7/13   5/13
5 SE WRIGHTSVILL 1900   78 81   50/  8/ 12   N/A
BUOY 41002       1832   81 81  340/ 23/ 27 1008.6   11/10   7/10
BUOY 41004       1900   79 82  360/ 14/ 16 1014.6    6/ 9   5/ 9

$$


USA.gov is the U.S. government's official web portal to all federal, state and local government web resources and services.